Location: ???
(35.5616°N, 139.7977°E)
Time: 02:24:18
(UTC+00:00)

ATLAS 3B R/B - Pass Details

Date: 17 November 2025
Orbit: 935 x 1258 km, 63.8° (Epoch: 09 December)

Event Time Altitude Azimuth Distance (km) Brightness Sun altitude
Exits shadow 19:57:00 18° 252° (WSW) 2,546 4.2 -16.7°
Maximum altitude 20:02:03 39° 311° (NW) 1,748 3.4 -15.7°
Drops below altitude 10° 20:09:17 10° 18° (NNE) 3,233 5.3 -14.3°
Sets 20:12:23 0° 26° (NNE) 4,214 6.0 -13.7°
